Orbital Elements at Epoch 2459000.5 (2020-May-31.0) TDB
Reference: JPL 22 (heliocentric ecliptic J2000)
Element | Value | Uncertainty (1-sigma) | Units |
e | .1296644476087369 | 4.9271e-08 | |
a | 2.3373524488604 | 2.1082e-08 | au |
q | 2.034280934711988 | 1.1607e-07 | au |
i | 5.105957343109112 | 5.17e-06 | deg |
node | 263.7288949355278 | 7.3446e-05 | deg |
peri | 54.90212276473743 | 7.8625e-05 | deg |
M | 135.2633285306171 | 2.8728e-05 | deg |
tp | 2458510.086628443739 (2019-Jan-26.58662844) | 0.00010154 | TDB |
period | 1305.223046616747 3.57 | 1.7659e-05 4.835e-08 | d yr |
n | .2758149275199758 | 3.7317e-09 | deg/d |
Q | 2.640423963008812 | 2.3816e-08 | au |
|
| | Orbit Determination Parameters
Additional Information
|